[[{"header":{"parameterUnit":"m.s-1","parameterCategory":1,"la1":30.2991,"la2":30.254,"lo1":-89.0895,"lo2":-89.0444,"dy":0.0017,"dx":0.0017,"nx":28,"ny":28,"refTime":"2024-02-14T03:00:00:Z","depth":0,"parameterNumber":2,"parameterNumberName":"U-component_of_WINDS"},"data":[0,0,0,0,0,0,0,0,0,0,0,0,0,0,0,0,0,0,0,0,0,0,0,0,0,0,0,0,0,0,0,0,0,0,0,0,0,0,0,0,0,0,0,0,0,0,0,0,0,0,0,0,0,0,0,0,0,0,-2.3408,-2.3408,0,-2.3482,-2.3483,-2.3484,-2.344,-2.3438,-2.3436,-2.3434,-2.3511,-2.3515,-2.3519,0,0,0,0,0,0,0,0,0,0,0,0,0,-2.3229,-2.3233,-2.3408,-2.3409,-2.3409,-2.3482,-2.3483,-2.3484,-2.3441,-2.3438,-2.3436,-2.3433,-2.351,-2.3514,-2.3519,0,0,0,0,0,0,0,0,0,0,0,0,0,-2.3306,-2.3234,-2.3407,-2.3397,-2.3396,-2.3482,-2.3483,-2.3484,-2.3441,-2.3438,-2.3435,-2.3432,-2.3508,-2.3514,-2.352,-2.362,0,0,-2.3538,-2.3541,0,0,0,0,0,0,0,0,-2.3301,-2.3312,-2.3397,-2.3398,-2.3397,-2.3449,-2.3448,-2.353,-2.3442,-2.3424,-2.3434,-2.343,-2.3493,-2.35,-2.3521,-2.3624,-2.3627,-2.3539,-2.3542,-2.3545,-2.3547,0,0,0,0,0,0,0,-2.3296,-2.3309,-2.3437,-2.3399,-2.3399,-2.3388,-2.3396,-2.3463,-2.3475,-2.3426,-2.3423,-2.3432,-2.3492,-2.3515,-2.3522,-2.3628,-2.3539,-2.3544,-2.3548,-2.355,-2.3818,-2.3821,0,0,0,0,0,0,-2.3291,-2.3305,-2.3435,-2.3439,-2.3341,-2.3394,-2.3402,-2.3435,-2.3474,-2.3477,-2.3435,-2.343,-2.3506,-2.3515,-2.3525,-2.3645,-2.3545,-2.3551,-2.3554,-2.3814,-2.3819,-2.3822,0,0,0,0,0,0,-2.3288,-2.3304,-2.3432,-2.3371,-2.3387,-2.3401,-2.3438,-2.3439,-2.3461,-2.3481,-2.3483,-2.3456,-2.3504,-2.3516,-2.3597,-2.3647,-2.3553,-2.3559,-2.381,-2.3816,-2.382,-2.3885,0,0,0,0,0,0,-2.3283,-2.3302,-2.334,-2.3372,-2.339,-2.3502,-2.3441,-2.3442,-2.3472,-2.3466,-2.3502,-2.3504,-2.3503,-2.3588,-2.3603,-2.3653,-2.3563,-2.3806,-2.3813,-2.3819,-2.3879,-2.3892,-2.3904,0,0,0,0,0,-2.3277,-2.3356,-2.3342,-2.3358,-2.3438,-2.3505,-2.3515,-2.3511,-2.3476,-2.3514,-2.3527,-2.3503,-2.3639,-2.3597,-2.3613,-2.3666,-2.3802,-2.3811,-2.3818,-2.3873,-2.389,-2.3903,0,0,0,0,0,0,-2.3329,-2.336,-2.3345,-2.3437,-2.3469,-2.3498,-2.3546,-2.3529,-2.3572,-2.3564,-2.3558,-2.3567,-2.3651,-2.3666,-2.3618,-2.3766,-2.3715,-2.3727,-2.3752,-2.3767,-2.378,-2.3774,-2.3568,0,0,0,0,0,-2.3351,-2.3403,-2.3427,-2.3506,-2.3523,-2.3532,-2.3561,-2.3555,-2.3588,-2.3601,-2.362,-2.3653,-2.3703,-2.3736,-2.3784,-2.3882,-2.3889,-2.3926,-2.3939,-2.3949,-2.3958,-2.4012,-2.4029,-2.3848,-2.3848,-2.3848,0,0,-2.3397,-2.3421,-2.3454,-2.3517,-2.3541,-2.3595,-2.3543,-2.3603,-2.3643,-2.361,-2.3687,-2.3703,-2.3739,-2.3829,-2.3869,-2.3845,-2.401,-2.3959,-2.3967,-2.3971,-2.4022,-2.4039,-2.4054,-2.3854,-2.3853,-2.3852,0,0,-2.3509,-2.3532,-2.36,-2.3626,-2.3663,-2.3668,-2.3685,-2.3717,-2.3726,-2.3803,-2.378,-2.3828,-2.3915,-2.3942,-2.3967,-2.4091,-2.407,-2.4106,-2.4171,-2.4223,-2.4237,-2.4249,-2.4293,-2.4309,-2.4116,-2.4116,-2.4116,0,-2.3562,-2.3642,-2.3637,-2.3699,-2.3727,-2.3701,-2.377,-2.3795,-2.3846,-2.3866,-2.3838,-2.3947,-2.3969,-2.4065,-2.4095,-2.4117,-2.4136,-2.4101,-2.4235,-2.4248,-2.4259,-2.4301,-2.4318,-2.412,-2.412,-2.412,-2.4119,0,-2.3706,-2.3762,-2.3812,-2.3862,-2.3897,-2.3962,-2.3967,-2.4002,-2.3995,-2.4003,-2.4083,-2.411,-2.4162,-2.4184,-2.4177,-2.428,-2.4263,-2.4236,-2.4185,-2.4281,-2.432,-2.4336,-2.4126,-2.4125,-2.4124,-2.4123,0,0,-2.3851,-2.3898,-2.3916,-2.3939,-2.3978,-2.4022,-2.4086,-2.4137,-2.4168,-2.4205,-2.4258,-2.4333,-2.4308,-2.4336,-2.4332,-2.4378,-2.4474,-2.4345,-2.4346,-2.4367,-2.4589,-2.4609,-2.4627,-2.4462,-2.4465,-2.4467,-2.4586,0,-2.3965,-2.4076,-2.4074,-2.4178,-2.423,-2.4207,-2.4263,-2.4293,-2.4304,-2.435,-2.4362,-2.4415,-2.4378,-2.4395,-2.4439,-2.4453,-2.4519,-2.4445,-2.4512,-2.4514,-2.4502,-2.4648,-2.4669,-2.478,-2.4601,-2.4604,-2.4605,0,-2.4112,-2.4154,-2.4263,-2.4295,-2.4317,-2.4367,-2.4414,-2.4459,-2.4493,-2.4498,-2.4531,-2.452,-2.4585,-2.4534,-2.4625,-2.4575,-2.4602,-2.4614,-2.4618,-2.4623,-2.4565,-2.4657,-2.4815,-2.4831,-2.463,-2.4628,-2.4626,0,-2.4207,-2.429,-2.4366,-2.4386,-2.4426,-2.4462,-2.448,-2.4512,-2.4543,-2.4585,-2.4605,-2.4654,-2.468,-2.4719,-2.4721,-2.4684,-2.4813,-2.4762,-2.4819,-2.4819,-2.4846,-2.4844,-2.501,-2.4866,-2.4865,-2.4865,-2.4865,0,-2.4334,-2.4401,-2.4409,-2.4455,-2.4531,-2.4528,-2.4603,-2.4618,-2.4647,-2.4696,-2.468,-2.4726,-2.4728,-2.4776,-2.4779,-2.4854,-2.4866,-2.4872,-2.4871,-2.4873,-2.4872,-2.489,-2.4882,-2.4869,-2.4868,-2.4868,-2.4867,0,-2.4452,-2.4459,-2.4541,-2.4572,-2.4582,-2.4636,-2.4663,-2.4708,-2.4717,-2.478,-2.4795,-2.481,-2.4866,-2.4873,-2.4938,-2.494,-2.503,-2.5022,-2.5018,-2.5017,-2.5073,-2.5068,-2.5256,-2.5281,-2.512,-2.5122,-2.5123,0,-2.4532,-2.4583,-2.462,-2.4652,-2.4672,-2.4724,-2.4756,-2.4756,-2.479,-2.4834,-2.4874,-2.4928,-2.4971,-2.5062,-2.5079,-2.5129,-2.5122,-2.5185,-2.513,-2.5129,-2.5123,-2.5119,-2.5124,-2.5195,-2.5197,-2.5198,-2.5199,0,-2.4673,-2.4674,-2.4721,-2.4769,-2.4807,-2.4845,-2.4881,-2.4908,-2.4913,-2.4952,-2.5009,-2.5042,-2.511,-2.5164,-2.5214,-2.5233,-2.5218,-2.5217,-2.5233,-2.5234,-2.523,-2.5232,-2.5047,-2.5212,-2.5211,-2.521,-2.5209,-2.5209,-2.4774,-2.4819,-2.4852,-2.4904,-2.4931,-2.4965,-2.5009,-2.5024,-2.5071,-2.5125,-2.5123,-2.5186,-2.522,-2.5286,-2.5309,-2.5358,-2.5338,-2.5361,-2.5366,-2.5372,-2.5377,-2.5222,-2.5368,-2.5367,-2.5367,-2.5367,-2.5366,0,-2.4914,-2.4934,-2.4983,-2.5033,-2.5074,-2.5056,-2.5095,-2.5131,-2.5186,-2.522,-2.5263,-2.5329,-2.5382,-2.5403,-2.5455,-2.5491,-2.5485,-2.5505,-2.5502,-2.5506,-2.5393,-2.5374,-2.5508,-2.5508,-2.5508,-2.5508,-2.5508,-2.5508,-2.4992,-2.5066,-2.5072,-2.516,-2.518,-2.5241,-2.5265,-2.5296,-2.5323,-2.5397,-2.5441,-2.5455,-2.5484,-2.5538,-2.5586,-2.5591,-2.5611,-2.5633,-2.5635,-2.5529,-2.5514,-2.5501,-2.5483,-2.5638,-2.5638,-2.5745,-2.5746,-2.5746]},{"header":{"parameterUnit":"m.s-1","parameterCategory":1,"la1":30.2991,"la2":30.254,"lo1":-89.0895,"lo2":-89.0444,"dy":0.0017,"dx":0.0017,"nx":28,"ny":28,"refTime":"2024-02-14T03:00:00:Z","depth":0,"parameterNumber":3,"parameterNumberName":"V-component_of_WINDS"},"data":[0,0,0,0,0,0,0,0,0,0,0,0,0,0,0,0,0,0,0,0,0,0,0,0,0,0,0,0,0,0,0,0,0,0,0,0,0,0,0,0,0,0,0,0,0,0,0,0,0,0,0,0,0,0,0,0,0,0,2.3814,2.3815,0,2.3902,2.3903,2.3904,2.3912,2.3911,2.391,2.3909,2.3995,2.3998,2.4001,0,0,0,0,0,0,0,0,0,0,0,0,0,2.3647,2.365,2.3814,2.3815,2.3816,2.3902,2.3903,2.3904,2.3912,2.3911,2.391,2.3909,2.3994,2.3998,2.4001,0,0,0,0,0,0,0,0,0,0,0,0,0,2.3725,2.3651,2.3814,2.383,2.3833,2.3902,2.3903,2.3905,2.3912,2.3911,2.3909,2.3908,2.3993,2.3997,2.4002,2.4059,0,0,2.4016,2.4018,0,0,0,0,0,0,0,0,2.3721,2.3732,2.3827,2.3829,2.3832,2.3895,2.3876,2.3956,2.3913,2.3882,2.3909,2.3907,2.3962,2.397,2.3989,2.4063,2.4067,2.4017,2.402,2.4022,2.4023,0,0,0,0,0,0,0,2.3716,2.3728,2.3849,2.3828,2.3831,2.3832,2.3841,2.3891,2.3929,2.3884,2.3885,2.3896,2.3964,2.3984,2.3991,2.4068,2.4017,2.4021,2.4024,2.4026,2.4192,2.4194,0,0,0,0,0,0,2.3708,2.3723,2.3846,2.3851,2.3772,2.3836,2.3847,2.3876,2.3928,2.3935,2.3897,2.3896,2.3977,2.3986,2.3994,2.4064,2.4022,2.4026,2.4029,2.4191,2.4193,2.4194,0,0,0,0,0,0,2.3704,2.3719,2.3842,2.3788,2.3803,2.384,2.3873,2.3878,2.3899,2.3938,2.3944,2.3912,2.3976,2.3987,2.4043,2.4067,2.4028,2.4033,2.4189,2.4191,2.4194,2.4204,0,0,0,0,0,0,2.3699,2.3717,2.374,2.3788,2.3806,2.3891,2.3875,2.3881,2.3908,2.3907,2.3953,2.3959,2.3976,2.4036,2.4048,2.4073,2.4036,2.4187,2.419,2.4193,2.4201,2.4206,2.421,0,0,0,0,0,2.3693,2.3739,2.3742,2.3756,2.3836,2.3893,2.3903,2.3922,2.391,2.3933,2.3957,2.3958,2.4063,2.4042,2.4055,2.4081,2.4185,2.4189,2.4193,2.4199,2.4205,2.421,0,0,0,0,0,0,2.3692,2.3746,2.3749,2.3812,2.3848,2.3894,2.3923,2.3928,2.3967,2.3964,2.3985,2.3996,2.405,2.4072,2.4047,2.4139,2.4122,2.4129,2.4123,2.4129,2.4133,2.4126,2.404,0,0,0,0,0,2.3699,2.3742,2.3786,2.3837,2.3855,2.3886,2.3911,2.3923,2.396,2.3975,2.4004,2.4039,2.4079,2.4105,2.4145,2.4205,2.4214,2.423,2.4234,2.4237,2.4242,2.4274,2.4281,2.4206,2.4206,2.4206,0,0,2.3714,2.3748,2.3774,2.3837,2.3867,2.3908,2.3899,2.3944,2.3974,2.3981,2.4036,2.4058,2.4098,2.4156,2.4183,2.4175,2.4265,2.4242,2.4244,2.4247,2.4278,2.4285,2.4292,2.4209,2.4208,2.4208,0,0,2.3762,2.3793,2.3839,2.3869,2.3913,2.3934,2.3945,2.399,2.4006,2.4061,2.4067,2.4103,2.4173,2.4201,2.4224,2.4283,2.4285,2.4296,2.4318,2.4349,2.4355,2.436,2.4379,2.4386,2.43,2.4301,2.4301,0,2.3774,2.3839,2.3861,2.3906,2.3933,2.3944,2.3989,2.4016,2.4071,2.4088,2.408,2.4167,2.4195,2.4259,2.4273,2.4293,2.4304,2.429,2.4352,2.4358,2.4363,2.4382,2.4389,2.4301,2.4301,2.4301,2.4301,0,2.3851,2.3896,2.3927,2.3982,2.4012,2.4057,2.4084,2.4112,2.4122,2.4143,2.4198,2.4232,2.4278,2.4294,2.4303,2.4359,2.4353,2.4348,2.4332,2.4371,2.4389,2.4396,2.4303,2.4302,2.4302,2.4302,0,0,2.39,2.3966,2.3977,2.4002,2.4052,2.4086,2.4131,2.4177,2.42,2.4238,2.4274,2.4333,2.4329,2.4356,2.4368,2.4396,2.4438,2.4387,2.4389,2.4394,2.45,2.4502,2.451,2.444,2.4442,2.4443,2.4496,0,2.3953,2.4035,2.4056,2.4124,2.4165,2.4175,2.4214,2.4248,2.4268,2.4304,2.4327,2.4368,2.436,2.4376,2.4403,2.4427,2.4459,2.4424,2.4472,2.4474,2.4461,2.452,2.4522,2.4571,2.4503,2.4504,2.4505,0,2.4026,2.4066,2.4139,2.4183,2.4201,2.4235,2.4279,2.4315,2.4353,2.4366,2.4396,2.4405,2.445,2.4433,2.4494,2.447,2.4491,2.4505,2.4508,2.4512,2.4491,2.4524,2.4587,2.4594,2.4517,2.4516,2.4515,0,2.4052,2.4124,2.4177,2.4198,2.4251,2.4275,2.4298,2.4335,2.4361,2.4399,2.4416,2.4459,2.4481,2.4513,2.4533,2.4519,2.4592,2.4577,2.4603,2.4602,2.4617,2.4615,2.4683,2.4633,2.4633,2.4633,2.4632,0,2.4108,2.4152,2.419,2.4222,2.4271,2.4294,2.4341,2.4364,2.4397,2.4433,2.4444,2.4477,2.4502,2.4538,2.4554,2.4602,2.4612,2.4623,2.4626,2.4621,2.4619,2.4634,2.463,2.4635,2.4634,2.4634,2.4633,0,2.4146,2.4173,2.4231,2.4277,2.429,2.4323,2.4362,2.4393,2.4414,2.4459,2.4471,2.4503,2.4546,2.457,2.4623,2.4634,2.4686,2.4689,2.4674,2.4675,2.4699,2.4696,2.4777,2.4788,2.4732,2.4733,2.4733,0,2.4179,2.4213,2.4263,2.4288,2.4312,2.4353,2.438,2.4404,2.4431,2.4477,2.4502,2.4546,2.4582,2.465,2.4677,2.4718,2.472,2.4746,2.4726,2.472,2.4719,2.4716,2.4719,2.4749,2.4749,2.475,2.475,0,2.4235,2.4247,2.4286,2.4331,2.4363,2.4399,2.4434,2.4454,2.4483,2.4513,2.4558,2.4586,2.4641,2.4684,2.4727,2.4748,2.4753,2.4756,2.4764,2.4758,2.4748,2.4752,2.4681,2.4754,2.4753,2.4753,2.4753,2.4753,2.427,2.4301,2.434,2.4384,2.4413,2.4446,2.4477,2.4502,2.454,2.4588,2.4599,2.4646,2.4682,2.474,2.4763,2.4799,2.4794,2.4806,2.4808,2.4811,2.4811,2.4743,2.4807,2.4807,2.4807,2.4807,2.4807,0,2.4325,2.4352,2.4392,2.4441,2.4475,2.4479,2.4518,2.4545,2.4586,2.462,2.4656,2.4707,2.4748,2.4779,2.4821,2.4843,2.4846,2.4853,2.4851,2.4856,2.4814,2.4802,2.485,2.485,2.485,2.485,2.485,2.485,2.4358,2.4409,2.4426,2.4491,2.4516,2.4563,2.4585,2.4614,2.4642,2.4698,2.4733,2.4753,2.4786,2.483,2.4868,2.4875,2.4889,2.4896,2.4904,2.4863,2.4859,2.4854,2.4843,2.4899,2.4899,2.4943,2.4943,2.4943]}]]